Time,TemperatureF,DewpointF,PressureIn,WindDirection,WindDirectionDegrees,WindSpeedMPH,WindSpeedGustMPH,Humidity,HourlyPrecipIn,Conditions,Clouds,dailyrainin,SolarRadiationWatts/m^2,SoftwareType,DateUTC
2013-05-22 00:01:00,55.0,24.0,-100.00,NNW,333,10.0,15.0,30,0.00,,,0.00,0.000000,,2013-05-22 06:01:00,
2013-05-22 00:32:00,53.0,25.0,-100.00,NE,48,6.0,13.0,34,-99.99,,,0.00,0.000000,,2013-05-22 06:32:00,
2013-05-22 00:42:00,53.0,25.0,-100.00,NE,48,6.0,13.0,34,-99.99,,,0.00,0.000000,,2013-05-22 06:42:00,
2013-05-22 01:32:00,52.0,27.0,-100.00,NE,55,7.0,8.0,37,-99.99,,,0.00,0.000000,,2013-05-22 07:32:00,
2013-05-22 01:42:00,52.0,27.0,-100.00,NE,55,7.0,8.0,37,-99.99,,,0.00,0.000000,,2013-05-22 07:42:00,
2013-05-22 01:52:00,52.0,27.0,-100.00,NE,55,7.0,8.0,37,-99.99,,,0.00,0.000000,,2013-05-22 07:52:00,
2013-05-22 02:02:00,52.0,27.0,-100.00,NE,55,7.0,8.0,37,-99.99,,,0.00,0.000000,,2013-05-22 08:02:00,
2013-05-22 02:32:00,52.0,26.0,-100.00,NE,46,7.0,10.0,36,-99.99,,,-99.99,0.000000,,2013-05-22 08:32:00,
2013-05-22 02:42:00,52.0,26.0,-100.00,NE,46,7.0,10.0,36,-99.99,,,-99.99,0.000000,,2013-05-22 08:42:00,
2013-05-22 03:33:00,50.0,23.0,-100.00,NNE,22,6.0,7.0,34,-99.99,,,0.00,0.000000,,2013-05-22 09:33:00,
2013-05-22 03:42:00,50.0,23.0,-100.00,NNE,22,6.0,7.0,34,-99.99,,,0.00,0.000000,,2013-05-22 09:42:00,
2013-05-22 03:53:00,50.0,23.0,-100.00,NNE,22,6.0,7.0,34,-99.99,,,0.00,0.000000,,2013-05-22 09:53:00,
2013-05-22 04:02:00,50.0,23.0,-100.00,NNE,22,6.0,7.0,34,-99.99,,,0.00,0.000000,,2013-05-22 10:02:00,
2013-05-22 04:33:00,49.0,27.0,-100.00,NNE,21,4.0,7.0,42,-99.99,,,0.00,0.000000,,2013-05-22 10:33:00,
2013-05-22 04:42:00,49.0,27.0,-100.00,NNE,21,4.0,7.0,42,-99.99,,,0.00,0.000000,,2013-05-22 10:42:00,
2013-05-22 04:52:00,49.0,27.0,-100.00,NNE,21,4.0,7.0,42,-99.99,,,0.00,0.000000,,2013-05-22 10:52:00,
2013-05-22 05:32:00,50.0,25.0,-100.00,ENE,73,5.0,6.0,37,-99.99,,,0.00,0.000000,,2013-05-22 11:32:00,
2013-05-22 06:32:00,47.0,26.0,-100.00,NE,44,6.0,8.0,44,-99.99,,,0.00,2.000000,,2013-05-22 12:32:00,
2013-05-22 08:32:00,56.0,28.0,-100.00,ENE,57,8.0,12.0,34,-99.99,,,0.00,290.000000,,2013-05-22 14:32:00,
2013-05-22 09:33:00,61.0,27.0,-100.00,ESE,111,9.0,13.0,27,0.00,,,-99.99,507.000000,,2013-05-22 15:33:00,
2013-05-22 09:43:00,61.0,27.0,-100.00,ESE,111,9.0,13.0,27,0.00,,,-99.99,507.000000,,2013-05-22 15:43:00,
2013-05-22 09:53:00,61.0,27.0,-100.00,ESE,111,9.0,13.0,27,0.00,,,-99.99,507.000000,,2013-05-22 15:53:00,
2013-05-22 10:02:00,61.0,27.0,-100.00,ESE,111,9.0,13.0,27,0.00,,,-99.99,507.000000,,2013-05-22 16:02:00,
2013-05-22 10:33:00,63.0,25.0,-100.00,SE,135,7.0,15.0,23,0.00,,,0.00,712.000000,,2013-05-22 16:33:00,
2013-05-22 10:42:00,63.0,25.0,-100.00,SE,135,7.0,15.0,23,0.00,,,0.00,712.000000,,2013-05-22 16:42:00,
2013-05-22 10:52:00,63.0,25.0,-100.00,SE,135,7.0,15.0,23,0.00,,,0.00,712.000000,,2013-05-22 16:52:00,
2013-05-22 11:02:00,63.0,25.0,-100.00,SE,135,7.0,15.0,23,0.00,,,0.00,712.000000,,2013-05-22 17:02:00,
2013-05-22 11:33:00,67.0,25.0,-100.00,SSW,203,9.0,15.0,20,0.00,,,0.00,876.000000,,2013-05-22 17:33:00,
2013-05-22 11:42:00,67.0,25.0,-100.00,SSW,203,9.0,15.0,20,0.00,,,0.00,876.000000,,2013-05-22 17:42:00,
2013-05-22 11:53:00,67.0,25.0,-100.00,SSW,203,9.0,15.0,20,0.00,,,0.00,876.000000,,2013-05-22 17:53:00,
2013-05-22 12:02:00,67.0,25.0,-100.00,SSW,203,9.0,15.0,20,0.00,,,0.00,876.000000,,2013-05-22 18:02:00,
2013-05-22 12:34:00,69.0,21.0,-100.00,SW,228,10.0,20.0,16,0.00,,,0.00,990.000000,,2013-05-22 18:34:00,
2013-05-22 12:42:00,69.0,21.0,-100.00,SW,228,10.0,20.0,16,0.00,,,0.00,990.000000,,2013-05-22 18:42:00,
2013-05-22 12:52:00,69.0,21.0,-100.00,SW,228,10.0,20.0,16,0.00,,,0.00,990.000000,,2013-05-22 18:52:00,
2013-05-22 13:02:00,69.0,21.0,-100.00,SW,228,10.0,20.0,16,0.00,,,0.00,990.000000,,2013-05-22 19:02:00,
2013-05-22 13:32:00,71.0,18.0,-100.00,WSW,237,10.0,20.0,13,0.00,,,0.00,1048.000000,,2013-05-22 19:32:00,
2013-05-22 13:42:00,71.0,18.0,-100.00,WSW,237,10.0,20.0,13,0.00,,,0.00,1048.000000,,2013-05-22 19:42:00,
2013-05-22 13:52:00,71.0,18.0,-100.00,WSW,237,10.0,20.0,13,0.00,,,0.00,1048.000000,,2013-05-22 19:52:00,
2013-05-22 14:02:00,71.0,18.0,-100.00,WSW,237,10.0,20.0,13,0.00,,,0.00,1048.000000,,2013-05-22 20:02:00,
2013-05-22 14:32:00,72.0,15.0,-100.00,SW,234,13.0,23.0,11,0.00,,,0.00,1056.000000,,2013-05-22 20:32:00,
2013-05-22 14:42:00,72.0,15.0,-100.00,SW,234,13.0,23.0,11,0.00,,,0.00,1056.000000,,2013-05-22 20:42:00,
2013-05-22 14:52:00,72.0,15.0,-100.00,SW,234,13.0,23.0,11,0.00,,,0.00,1056.000000,,2013-05-22 20:52:00,
2013-05-22 15:01:00,72.0,15.0,-100.00,SW,234,13.0,23.0,11,0.00,,,0.00,1056.000000,,2013-05-22 21:01:00,
2013-05-22 15:33:00,75.0,15.0,-100.00,WSW,255,10.0,22.0,10,0.00,,,0.00,998.000000,,2013-05-22 21:33:00,
2013-05-22 15:42:00,75.0,15.0,-100.00,WSW,255,10.0,22.0,10,0.00,,,0.00,998.000000,,2013-05-22 21:42:00,
2013-05-22 15:53:00,75.0,15.0,-100.00,WSW,255,10.0,22.0,10,0.00,,,0.00,998.000000,,2013-05-22 21:53:00,
2013-05-22 16:03:00,75.0,15.0,-100.00,WSW,255,10.0,22.0,10,0.00,,,0.00,998.000000,,2013-05-22 22:03:00,
2013-05-22 17:32:00,76.0,16.0,-100.00,WSW,243,9.0,17.0,10,-99.99,,,0.00,727.000000,,2013-05-22 23:32:00,
2013-05-22 17:42:00,76.0,16.0,-100.00,WSW,243,9.0,17.0,10,-99.99,,,0.00,727.000000,,2013-05-22 23:42:00,
2013-05-22 17:52:00,76.0,16.0,-100.00,WSW,243,9.0,17.0,10,-99.99,,,0.00,727.000000,,2013-05-22 23:52:00,
2013-05-22 18:01:00,76.0,16.0,-100.00,WSW,243,9.0,17.0,10,-99.99,,,0.00,727.000000,,2013-05-23 00:01:00,
2013-05-22 19:32:00,71.0,16.0,-100.00,WSW,238,7.0,16.0,12,-99.99,,,0.00,234.000000,,2013-05-23 01:32:00,
2013-05-22 19:42:00,71.0,16.0,-100.00,WSW,238,7.0,16.0,12,-99.99,,,0.00,234.000000,,2013-05-23 01:42:00,
2013-05-22 19:52:00,71.0,16.0,-100.00,WSW,238,7.0,16.0,12,-99.99,,,0.00,234.000000,,2013-05-23 01:52:00,
2013-05-22 20:01:00,71.0,16.0,-100.00,WSW,238,7.0,16.0,12,-99.99,,,0.00,234.000000,,2013-05-23 02:01:00,
2013-05-22 20:32:00,68.0,15.0,-100.00,WSW,241,5.0,33.0,13,0.00,,,0.00,39.000000,,2013-05-23 02:32:00,
2013-05-22 20:42:00,68.0,15.0,-100.00,WSW,241,5.0,33.0,13,0.00,,,0.00,39.000000,,2013-05-23 02:42:00,
2013-05-22 20:51:00,68.0,15.0,-100.00,WSW,241,5.0,33.0,13,0.00,,,0.00,39.000000,,2013-05-23 02:51:00,
2013-05-22 21:01:00,68.0,15.0,-100.00,WSW,241,5.0,33.0,13,0.00,,,0.00,39.000000,,2013-05-23 03:01:00,
2013-05-22 21:33:00,66.0,15.0,-100.00,SSE,152,4.0,11.0,14,0.00,,,0.00,1.000000,,2013-05-23 03:33:00,
2013-05-22 21:43:00,66.0,15.0,-100.00,SSE,152,4.0,11.0,14,0.00,,,0.00,1.000000,,2013-05-23 03:43:00,
2013-05-22 21:53:00,66.0,15.0,-100.00,SSE,152,4.0,11.0,14,0.00,,,0.00,1.000000,,2013-05-23 03:53:00,
2013-05-22 22:02:00,66.0,15.0,-100.00,SSE,152,4.0,11.0,14,0.00,,,0.00,1.000000,,2013-05-23 04:02:00,
2013-05-22 22:33:00,63.0,18.0,-100.00,South,181,6.0,10.0,17,0.00,,,0.00,0.000000,,2013-05-23 04:33:00,
2013-05-22 22:43:00,63.0,18.0,-100.00,South,181,6.0,10.0,17,0.00,,,0.00,0.000000,,2013-05-23 04:43:00,
2013-05-22 22:52:00,63.0,18.0,-100.00,South,181,6.0,10.0,17,0.00,,,0.00,0.000000,,2013-05-23 04:52:00,
2013-05-22 23:02:00,63.0,18.0,-100.00,South,181,6.0,10.0,17,0.00,,,0.00,0.000000,,2013-05-23 05:02:00,
2013-05-22 23:32:00,64.0,20.0,-100.00,SW,224,7.0,11.0,18,0.00,,,0.00,0.000000,,2013-05-23 05:32:00,
2013-05-22 23:43:00,64.0,20.0,-100.00,SW,224,7.0,11.0,18,0.00,,,0.00,0.000000,,2013-05-23 05:43:00,